QAK4937 MMSD-MMAA

Flight info

Callsign QAK4937
Flight time N/A
Altitude 39000
Route ILIGA1B ILIGA J1 ZIH DCT AGLON DCT ANVAN ANVAN1B
Aircraft CL60/M-SBDE1E2E3FGHIJ1J4J5J7M3RWXYZ/LB1V1D1

Departure

Time 2026-04-27 16:37
Airport Los Cabos International Airport (MMSD)

Arrival

Time N/A
Airport General Juan N. Álvarez International Airport (MMAA)
Time Latitude Longitude Altitude Speed Heading
2026-04-27 16:08 23.16481 -109.71885 378 ft 0 kts 354°
2026-04-27 16:29 23.16499 -109.71892 379 ft 3 kts 310°
2026-04-27 16:30 23.16436 -109.71908 379 ft 11 kts 170°
2026-04-27 16:30 23.16257 -109.71969 378 ft 15 kts 214°
2026-04-27 16:31 23.15836 -109.71935 373 ft 25 kts 173°
2026-04-27 16:31 23.15468 -109.71895 365 ft 12 kts 175°
2026-04-27 16:32 23.15234 -109.71873 360 ft 21 kts 174°
2026-04-27 16:32 23.15070 -109.71856 356 ft 26 kts 173°
2026-04-27 16:33 23.14777 -109.71827 347 ft 0 kts 175°
2026-04-27 16:33 23.14753 -109.71823 346 ft 6 kts 170°
2026-04-27 16:33 23.14685 -109.71812 344 ft 12 kts 175°
2026-04-27 16:34 23.14576 -109.71806 339 ft 18 kts 175°
2026-04-27 16:34 23.14426 -109.71789 334 ft 24 kts 175°
2026-04-27 16:34 23.14249 -109.71771 326 ft 25 kts 175°
2026-04-27 16:34 23.14052 -109.71751 318 ft 30 kts 174°
2026-04-27 16:35 23.13930 -109.71761 315 ft 11 kts 259°
2026-04-27 16:35 23.13930 -109.71841 316 ft 8 kts 265°
2026-04-27 16:35 23.13963 -109.71937 319 ft 9 kts 354°
2026-04-27 16:36 23.14153 -109.71957 327 ft 60 kts 354°
2026-04-27 16:36 23.14809 -109.72033 352 ft 126 kts 353°
2026-04-27 16:36 23.15811 -109.72142 636 ft 152 kts 355°
2026-04-27 16:36 23.16990 -109.72205 883 ft 187 kts 354°
2026-04-27 16:37 23.18304 -109.72354 1572 ft 193 kts 354°
2026-04-27 16:37 23.19606 -109.72514 2483 ft 190 kts 354°
2026-04-27 16:37 23.20910 -109.72670 3329 ft 192 kts 355°
2026-04-27 16:37 23.22237 -109.72816 4117 ft 196 kts 359°
2026-04-27 16:38 23.23604 -109.72727 4887 ft 201 kts 12°
2026-04-27 16:38 23.24947 -109.72280 5588 ft 208 kts 25°
2026-04-27 16:38 23.26199 -109.71460 5909 ft 211 kts 41°
2026-04-27 16:38 23.27208 -109.70273 5984 ft 215 kts 58°
2026-04-27 16:39 23.27836 -109.68812 5986 ft 216 kts 76°
2026-04-27 16:39 23.28007 -109.67122 6499 ft 234 kts 91°
2026-04-27 16:39 23.28002 -109.65424 7820 ft 223 kts 91°
2026-04-27 16:39 23.28005 -109.63773 8842 ft 224 kts 91°
2026-04-27 16:40 23.28008 -109.62090 9757 ft 229 kts 92°
2026-04-27 16:40 23.28011 -109.60380 10702 ft 231 kts 92°
2026-04-27 16:40 23.28013 -109.58651 11634 ft 234 kts 92°
2026-04-27 16:40 23.28016 -109.56905 12537 ft 237 kts 92°
2026-04-27 16:41 23.28017 -109.55129 13420 ft 240 kts 93°
2026-04-27 16:41 23.28018 -109.53323 14246 ft 245 kts 92°
2026-04-27 16:41 23.28019 -109.51463 15134 ft 245 kts 92°
2026-04-27 16:41 23.28023 -109.49682 16188 ft 235 kts 92°
2026-04-27 16:42 23.28025 -109.47945 16966 ft 235 kts 92°
2026-04-27 16:42 23.28054 -109.46156 17643 ft 239 kts 91°
2026-04-27 16:42 23.28091 -109.44353 18285 ft 244 kts 91°
2026-04-27 16:42 23.28129 -109.42508 18966 ft 247 kts 91°
2026-04-27 16:43 23.28167 -109.40640 19591 ft 251 kts 91°
2026-04-27 16:43 23.28205 -109.38752 20216 ft 254 kts 91°
2026-04-27 16:43 23.28243 -109.36829 20832 ft 258 kts 91°
2026-04-27 16:43 23.28282 -109.34857 21423 ft 262 kts 91°
2026-04-27 16:44 23.28320 -109.32880 22000 ft 265 kts 91°
2026-04-27 16:44 23.28157 -109.30901 22564 ft 263 kts 114°
2026-04-27 16:44 23.27326 -109.29198 23068 ft 256 kts 140°
2026-04-27 16:44 23.25960 -109.28064 23612 ft 247 kts 161°
2026-04-27 16:45 23.24418 -109.27248 24208 ft 247 kts 162°
2026-04-27 16:45 23.22848 -109.26421 24768 ft 250 kts 161°
2026-04-27 16:45 23.21281 -109.25592 25295 ft 254 kts 162°
2026-04-27 16:45 23.19697 -109.24754 25846 ft 256 kts 162°
2026-04-27 16:46 23.18082 -109.23900 26360 ft 259 kts 162°
2026-04-27 16:46 23.16466 -109.23045 26864 ft 262 kts 162°
2026-04-27 16:46 23.14801 -109.22166 27380 ft 264 kts 162°
2026-04-27 16:46 23.13149 -109.21292 27884 ft 266 kts 163°
2026-04-27 16:47 23.11497 -109.20418 28365 ft 268 kts 163°
2026-04-27 16:47 23.09792 -109.19518 28840 ft 271 kts 162°
2026-04-27 16:47 23.08107 -109.18627 29303 ft 272 kts 162°
2026-04-27 16:47 23.06385 -109.17718 29724 ft 275 kts 163°
2026-04-27 16:48 23.04651 -109.16800 30091 ft 280 kts 162°
2026-04-27 16:48 23.02897 -109.15863 30479 ft 283 kts 162°
2026-04-27 16:48 23.01119 -109.14914 30852 ft 287 kts 163°
2026-04-27 16:49 22.97506 -109.12985 31578 ft 293 kts 163°
2026-04-27 16:49 22.95650 -109.11993 31953 ft 295 kts 163°
2026-04-27 16:49 22.93794 -109.11002 32275 ft 299 kts 163°
2026-04-27 16:49 22.91915 -109.10001 32598 ft 302 kts 163°
2026-04-27 16:50 22.90018 -109.08988 32919 ft 305 kts 163°
2026-04-27 16:50 22.88127 -109.07980 33218 ft 308 kts 163°
2026-04-27 16:50 22.86189 -109.06947 33578 ft 310 kts 163°
2026-04-27 16:50 22.84255 -109.05913 34006 ft 309 kts 163°
2026-04-27 16:51 22.82308 -109.04874 34411 ft 308 kts 163°
2026-04-27 16:51 22.80389 -109.03850 34802 ft 306 kts 163°
2026-04-27 16:51 22.78480 -109.02831 35170 ft 305 kts 163°
2026-04-27 16:51 22.76574 -109.01816 35495 ft 305 kts 163°
2026-04-27 16:52 22.74682 -109.00808 35798 ft 305 kts 163°
2026-04-27 16:52 22.72799 -108.99753 36083 ft 309 kts 156°
2026-04-27 16:52 22.71041 -108.98360 36366 ft 316 kts 148°
2026-04-27 16:52 22.69345 -108.96827 36607 ft 316 kts 149°
2026-04-27 16:53 22.67662 -108.95310 36873 ft 316 kts 148°
2026-04-27 16:53 22.65975 -108.93793 37104 ft 316 kts 148°
2026-04-27 16:53 22.64280 -108.92269 37337 ft 316 kts 148°
2026-04-27 16:53 22.62580 -108.90741 37557 ft 316 kts 148°
2026-04-27 16:54 22.60881 -108.89215 37772 ft 316 kts 148°
2026-04-27 16:54 22.59211 -108.87716 37980 ft 315 kts 148°
2026-04-27 16:54 22.57531 -108.86208 38183 ft 315 kts 149°
2026-04-27 16:54 22.55833 -108.84686 38316 ft 316 kts 148°
2026-04-27 16:55 22.54154 -108.83179 38584 ft 312 kts 148°
2026-04-27 16:55 22.52499 -108.81692 38848 ft 308 kts 149°
2026-04-27 16:55 22.49175 -108.78721 38931 ft 315 kts 149°
2026-04-27 16:56 22.45731 -108.75646 38937 ft 325 kts 148°
2026-04-27 16:56 22.42202 -108.72495 38939 ft 334 kts 148°
2026-04-27 16:57 22.38599 -108.69276 38932 ft 338 kts 148°
2026-04-27 16:57 22.35147 -108.65827 38920 ft 343 kts 135°
2026-04-27 16:58 22.32149 -108.61842 38921 ft 342 kts 135°
2026-04-27 16:58 22.29152 -108.57869 38927 ft 342 kts 135°
2026-04-27 16:59 22.26135 -108.53875 38928 ft 342 kts 135°
2026-04-27 16:59 22.23135 -108.49907 38924 ft 342 kts 135°
2026-04-27 17:00 22.18624 -108.43949 38925 ft 343 kts 135°
2026-04-27 17:01 22.15618 -108.39983 38922 ft 342 kts 135°
2026-04-27 17:01 22.12596 -108.35999 38923 ft 341 kts 135°
2026-04-27 17:02 22.09608 -108.32063 38913 ft 341 kts 136°
2026-04-27 17:02 22.06589 -108.28091 38922 ft 341 kts 136°
2026-04-27 17:03 22.03578 -108.24133 38920 ft 343 kts 136°
2026-04-27 17:03 22.00563 -108.20171 38923 ft 343 kts 136°
2026-04-27 17:04 21.97546 -108.16209 38934 ft 342 kts 136°
2026-04-27 17:04 21.94530 -108.12252 38928 ft 342 kts 136°
2026-04-27 17:05 21.91500 -108.08280 38926 ft 341 kts 136°
2026-04-27 17:05 21.88495 -108.04343 38927 ft 341 kts 136°
2026-04-27 17:06 21.85491 -108.00411 38924 ft 341 kts 136°
2026-04-27 17:06 21.82481 -107.96474 38926 ft 342 kts 136°
2026-04-27 17:07 21.79459 -107.92526 38929 ft 342 kts 136°
2026-04-27 17:07 21.76440 -107.88581 38922 ft 342 kts 135°
2026-04-27 17:08 21.73431 -107.84654 38921 ft 341 kts 135°
2026-04-27 17:08 21.70418 -107.80724 38925 ft 341 kts 136°
2026-04-27 17:09 21.67383 -107.76769 38926 ft 342 kts 135°
2026-04-27 17:09 21.64362 -107.72835 38923 ft 342 kts 135°
2026-04-27 17:10 21.61345 -107.68909 38923 ft 342 kts 136°
2026-04-27 17:10 21.58318 -107.64971 38926 ft 341 kts 136°
2026-04-27 17:11 21.55307 -107.61058 38917 ft 341 kts 135°
2026-04-27 17:11 21.50764 -107.55160 38923 ft 341 kts 136°
2026-04-27 17:12 21.46238 -107.49290 38920 ft 342 kts 135°
2026-04-27 17:13 21.43211 -107.45367 38923 ft 342 kts 135°
2026-04-27 17:13 21.40160 -107.41416 38922 ft 342 kts 135°
2026-04-27 17:14 21.37135 -107.37502 38921 ft 341 kts 135°
2026-04-27 17:14 21.34097 -107.33572 38919 ft 341 kts 136°
2026-04-27 17:15 21.31077 -107.29672 38913 ft 341 kts 136°